Regional Weather Roundup
Issued by NWS

Home | Current Version | Previous Version | Graphics & Text | Print | Product List | Glossary On
Versions: 1 2 3 4 5 6 7 8 9 10 11 12 13 14 15 16 17 18 19 20 21 22 23 24 25 26 27 28 29 30 31 32 33 34 35 36 37 38 39 40 41 42 43 44 45 46 47 48 49 50
000
ASUS43 KLMK 190210
RWRKY
KENTUCKY REGIONAL WEATHER ROUNDUP
NATIONAL WEATHER SERVICE LOUISVILLE KY
1000 PM EDT SAT APR 18 2015

NOTE "FAIR" INDICATES FEW OR NO CLOUDS BELOW 12,000 FEET
WITH NO SIGNIFICANT WEATHER AND/OR OBSTRUCTIONS TO VISIBILITY.

KYZ001>023-026-027-061>063-070>075-190300-
WESTERN AND SOUTH CENTRAL KENTUCKY

CITY           SKY/WX    TMP DP  RH WIND       PRES   REMARKS
PADUCAH        MOCLDY    66  61  84 CALM      29.85R
HENDERSON      CLOUDY    66  55  68 CALM      29.86S
OWENSBORO      MOCLDY    74  50  42 E9        29.89R
HOPKINSVILLE   CLOUDY    72  59  63 E3        29.87S
BOWLING GREEN  PTCLDY    67  59  75 CALM      29.88S
GLASGOW        PTCLDY    69  53  55 NE5       29.90S
$$

KYZ024-025-028>034-038-045-046-053-190300-
NORTH CENTRAL KENTUCKY

CITY           SKY/WX    TMP DP  RH WIND       PRES   REMARKS
LOUISVILLE/SDF MOCLDY    72  48  42 NE5       29.92R
LOUISVILLE/LOU PTCLDY    72  47  40 NE3       29.93R
FORT KNOX      PTCLDY    67  46  46 NE5       29.91S
$$

KYZ035>037-039>044-047>052-055>060-089>105-190300-
NORTHEAST KENTUCKY

CITY           SKY/WX    TMP DP  RH WIND       PRES   REMARKS
LEXINGTON      MOCLDY    65  49  56 NE9       29.94S
COVINGTON      MOCLDY    70  45  40 NE8       29.97S
FRANKFORT      MOCLDY    71  44  37 NE5       29.92F
$$

KYZ054-064>069-076>088-106>120-190300-
SOUTHEAST KENTUCKY

CITY           SKY/WX    TMP DP  RH WIND       PRES   REMARKS
JACKSON        MOCLDY    71  45  39 VRB3      29.96S
LONDON         CLOUDY    71  50  47 CALM      29.93S
SOMERSET       CLOUDY    70  52  52 N5        29.93S
MIDDLESBORO    MOCLDY    71  58  65 S3        29.96R
MONTICELLO     CLOUDY    71  57  61 NE6       29.95S
$$



USA.gov is the U.S. government's official web portal to all federal, state and local government web resources and services.